Date,TemperatureHighF,TemperatureAvgF,TemperatureLowF,DewpointHighF,DewpointAvgF,DewpointLowF,HumidityHigh,HumidityAvg,HumidityLow,PressureMaxIn,PressureMinIn,WindSpeedMaxMPH,WindSpeedAvgMPH,GustSpeedMaxMPH,PrecipitationSumIn
2013-1-1,63.9,53.7,44.8,55.0,48.8,42.0,93,83,72,30.18,29.93,1,0,7,0.00
2013-1-2,60.4,54.5,51.5,54.0,51.9,50.0,97,91,77,30.14,29.90,3,0,7,0.06
2013-1-3,51.5,47.5,43.5,49.0,44.6,40.0,95,89,79,30.28,30.09,3,0,6,0.06
2013-1-4,52.0,41.4,32.7,39.0,32.8,-99.9,94,77,57,30.38,30.27,4,-23,7,0.00
2013-1-5,52.7,41.1,26.5,37.0,29.0,22.0,87,64,42,30.43,30.30,3,0,7,0.00
2013-1-6,50.6,46.4,41.2,46.0,40.7,35.0,89,80,66,30.29,30.12,4,0,10,0.01
2013-1-7,53.9,42.3,33.2,37.0,33.9,31.0,94,74,50,30.42,30.24,8,0,11,0.00
2013-1-8,57.1,47.7,35.9,47.0,40.4,32.0,87,76,68,30.42,30.33,3,0,9,0.00
2013-1-9,68.6,57.6,47.9,58.0,51.5,44.0,89,80,69,30.44,30.35,2,0,8,0.00
2013-1-10,73.5,62.0,52.8,59.0,55.2,51.0,94,80,56,30.45,30.31,6,0,10,0.00
2013-1-11,73.6,64.6,58.9,65.0,61.6,57.0,98,90,75,30.30,30.15,7,0,10,0.00
2013-1-12,78.4,67.2,57.6,64.0,60.8,56.0,98,81,59,30.19,30.09,5,0,8,0.00
2013-1-13,76.2,66.7,59.2,64.0,61.2,58.0,96,83,65,30.17,30.07,5,0,12,0.00
2013-1-14,77.8,68.2,60.9,65.0,61.2,58.0,94,79,62,30.16,30.07,9,1,13,0.00
2013-1-15,75.1,67.3,59.0,62.0,60.4,57.0,96,79,63,30.14,30.00,6,1,11,0.00
2013-1-16,75.2,67.0,61.8,66.0,62.2,59.0,95,85,70,30.03,29.93,8,1,13,0.01
2013-1-17,70.7,56.5,42.6,65.0,53.8,38.0,97,91,80,30.19,29.73,13,2,22,0.43
2013-1-18,52.1,42.1,31.5,38.0,30.6,25.0,94,67,38,30.52,30.19,7,1,21,0.00
2013-1-19,59.0,44.0,33.0,42.0,32.0,24.0,86,64,46,30.52,30.25,3,0,8,0.00
2013-1-20,63.4,49.1,38.7,41.0,38.0,36.0,92,69,43,30.24,30.08,5,0,15,0.00
2013-1-21,62.7,49.2,34.4,39.0,34.3,26.0,92,60,33,30.12,30.00,10,1,16,0.00
2013-1-22,49.3,41.5,33.7,25.0,21.6,19.0,57,46,34,30.30,30.09,9,1,15,0.00
2013-1-23,52.7,39.5,26.6,34.0,24.9,18.0,73,57,43,30.40,30.18,6,0,15,0.00
2013-1-24,62.2,50.2,33.9,43.0,32.9,12.0,81,55,26,30.45,30.11,10,2,18,0.00
2013-1-25,37.5,32.3,26.7,26.0,17.1,11.0,63,54,41,30.48,30.17,3,0,10,0.00
2013-1-26,58.6,45.6,34.4,39.0,32.5,26.0,81,61,44,30.32,30.13,3,0,7,0.00
2013-1-27,52.4,42.7,32.1,34.0,29.6,26.0,81,62,45,30.53,30.32,10,1,10,0.00
2013-1-28,60.3,47.4,39.7,50.0,40.7,31.0,92,78,62,30.47,30.30,2,0,6,0.00
2013-1-29,76.0,59.3,43.1,63.0,53.9,41.0,97,83,63,30.30,30.07,5,0,10,0.00
2013-1-30,78.3,67.4,50.1,65.0,61.6,47.0,95,83,59,30.06,29.55,16,5,27,0.57
2013-1-31,51.3,44.6,37.4,47.0,29.9,25.0,89,58,36,30.19,29.72,13,4,31,0.00
2013-2-1,48.4,41.3,31.0,31.0,21.9,13.0,65,48,25,30.38,30.13,13,2,21,0.00
2013-2-2,54.4,39.5,24.8,36.0,20.0,12.0,68,48,28,30.39,30.13,5,1,13,0.00
2013-2-3,59.0,47.3,36.9,38.0,33.6,29.0,84,61,36,30.12,29.94,18,3,24,0.00
2013-2-4,50.0,41.2,32.0,33.0,29.0,26.0,83,63,44,30.16,30.05,1,0,4,0.00
2013-2-5,65.9,49.9,36.1,48.0,40.2,30.0,87,71,51,30.07,29.98,7,0,17,0.00
2013-2-6,69.0,54.6,42.8,50.0,41.0,34.0,96,65,29,30.18,30.03,4,0,10,0.00
2013-2-7,52.1,48.2,44.3,47.0,45.1,37.0,96,89,57,30.17,29.87,9,2,16,2.80
2013-2-8,60.6,48.9,41.9,51.0,45.3,41.0,96,88,70,30.12,29.87,8,1,17,0.00
2013-2-9,61.4,46.7,32.7,43.0,31.8,28.0,91,60,30,30.33,30.11,7,0,12,0.00
2013-2-10,64.9,52.3,39.9,55.0,43.0,28.0,95,71,54,30.41,30.14,10,1,16,0.28
2013-2-11,67.8,59.4,54.4,64.0,58.1,53.0,98,95,87,30.21,30.06,7,1,15,0.99
2013-2-12,62.5,54.6,48.1,53.0,49.5,44.0,97,85,52,30.13,29.89,2,0,8,0.86
2013-2-13,57.1,50.4,46.3,55.0,48.0,42.0,97,92,77,29.91,29.73,13,1,17,0.09
2013-2-14,51.9,43.4,35.5,42.0,38.2,33.0,93,82,64,30.10,29.91,0,0,5,0.00
2013-2-15,61.7,45.2,31.4,45.0,36.4,30.0,96,75,39,30.13,29.97,4,0,7,0.00
2013-2-16,46.6,40.3,31.9,39.0,31.0,17.0,93,72,40,30.09,29.85,12,2,23,0.16
2013-2-17,45.8,34.5,25.4,20.0,16.3,13.0,66,49,30,30.32,30.10,11,2,19,0.00
2013-2-18,56.3,40.4,25.3,29.0,23.5,17.0,77,54,33,30.43,30.26,8,0,10,0.00
2013-2-19,52.6,45.2,38.5,50.0,40.5,28.0,96,84,61,30.25,30.00,7,1,11,0.29
2013-2-20,57.0,43.6,28.8,35.0,28.2,23.0,81,57,32,30.18,30.07,4,0,9,0.00
2013-2-21,64.8,49.0,34.4,38.0,30.9,24.0,72,52,33,30.21,30.06,4,0,10,0.00
2013-2-22,50.6,43.1,39.3,41.0,39.1,34.0,96,87,56,30.19,30.10,8,1,16,0.69
2013-2-23,45.6,42.4,38.4,45.0,41.6,37.0,97,97,96,30.10,29.84,10,0,11,0.60
2013-2-24,67.8,52.3,44.1,49.0,43.5,39.0,98,76,37,30.02,29.90,5,0,8,0.01
2013-2-25,50.1,45.2,39.4,43.0,36.6,32.0,89,73,57,30.09,29.92,13,2,15,0.01
2013-2-26,57.1,45.9,37.8,56.0,44.4,36.0,98,94,90,29.96,29.58,8,1,13,1.11
2013-2-27,60.5,48.7,39.1,44.0,40.1,36.0,94,74,50,29.90,29.78,11,1,14,0.00
2013-2-28,55.2,46.4,38.6,41.0,34.7,28.0,81,65,49,29.95,29.82,10,2,20,0.00
2013-3-1,54.6,41.8,30.1,34.0,29.9,25.0,85,64,45,30.00,29.88,8,1,14,0.00
2013-3-2,46.6,37.8,31.2,40.0,31.8,27.0,91,79,67,29.97,29.89,7,1,13,0.02
2013-3-3,48.1,36.7,27.4,29.0,25.3,21.0,88,65,42,30.06,29.94,8,1,12,0.00
2013-3-4,57.1,40.8,23.9,33.0,23.9,19.0,83,55,28,30.22,30.06,4,0,10,0.00
2013-3-5,67.4,53.1,37.9,56.0,43.2,31.0,93,70,55,30.12,29.69,17,3,23,0.04
2013-3-6,49.7,41.5,34.1,36.0,27.4,21.0,78,58,44,30.15,29.78,19,6,28,0.00
2013-3-7,59.0,42.1,26.4,36.0,30.5,23.0,91,66,41,30.27,30.15,5,0,11,0.00
2013-3-8,61.0,46.4,34.5,33.0,27.9,25.0,71,51,27,30.32,30.19,11,1,13,0.00
2013-3-9,64.0,50.4,37.6,37.0,31.8,26.0,66,50,33,30.36,30.23,3,0,10,0.00
2013-3-10,70.2,54.9,40.4,49.0,42.0,35.0,83,64,38,30.29,30.15,5,0,9,0.00
2013-3-11,70.5,59.4,47.2,56.0,49.2,39.0,82,70,56,30.19,29.84,10,2,15,0.00
2013-3-12,67.5,59.4,52.5,58.0,51.2,38.0,96,77,46,30.00,29.78,8,2,15,0.25
2013-3-13,63.1,51.3,38.6,37.0,31.4,24.0,78,49,29,30.18,30.00,16,3,21,0.00
2013-3-14,56.4,42.4,28.8,29.0,24.3,21.0,76,51,31,30.34,30.18,9,1,13,0.00
2013-3-15,72.7,52.7,32.2,44.0,33.6,23.0,76,50,35,30.26,30.01,7,1,13,0.00
2013-3-16,79.6,65.9,51.4,48.0,44.8,42.0,73,49,31,30.02,29.86,13,2,18,0.00
2013-3-17,75.0,64.5,54.7,56.0,51.6,46.0,83,64,46,30.03,29.92,4,0,14,0.00
2013-3-18,67.3,58.5,47.8,61.0,54.2,46.0,96,86,77,30.06,29.82,15,0,37,0.80
2013-3-19,72.5,57.5,48.8,54.0,43.4,30.0,97,67,25,30.04,29.86,9,2,14,0.02
2013-3-20,61.5,52.4,45.1,33.0,26.9,23.0,48,38,26,30.13,29.86,5,0,10,0.00
2013-3-21,54.8,45.7,36.8,29.0,21.9,15.0,64,41,24,29.96,29.84,12,3,18,0.00
2013-3-22,49.3,41.9,34.4,33.0,23.9,17.0,64,49,40,30.11,29.98,3,0,7,0.00
2013-3-23,54.1,47.0,43.7,52.0,41.5,32.0,96,82,63,30.07,29.90,13,0,13,0.31
2013-3-24,48.6,46.8,44.2,48.0,45.5,43.0,100,95,93,29.89,29.57,9,1,16,1.23
2013-3-25,51.1,44.0,37.4,45.0,30.5,23.0,96,61,41,30.01,29.63,22,6,28,0.01
2013-3-26,49.5,39.7,30.5,30.0,26.3,23.0,77,60,45,30.24,30.00,15,2,20,0.00
2013-3-27,57.0,41.9,27.2,31.0,27.2,23.0,87,59,34,30.32,30.21,9,1,13,0.00
2013-3-28,60.6,45.7,29.8,31.0,27.6,24.0,82,53,29,30.35,30.21,9,1,17,0.00
2013-3-29,67.2,52.9,37.8,37.0,30.7,25.0,71,45,29,30.36,30.21,8,0,9,0.00
2013-3-30,73.4,60.6,49.7,49.0,45.2,35.0,80,58,42,30.23,30.05,6,0,11,0.00
2013-3-31,77.6,65.0,57.7,60.0,55.4,49.0,91,72,48,30.05,29.86,8,1,18,0.06
2013-4-1,76.2,64.0,55.3,62.0,56.7,42.0,98,81,37,29.98,29.86,10,1,14,0.60
2013-4-2,73.7,59.4,44.4,47.0,43.3,39.0,88,59,33,30.14,29.98,10,1,13,0.00
2013-4-3,63.7,55.4,47.8,45.0,36.9,31.0,73,51,39,30.24,30.08,11,1,14,0.01
2013-4-4,52.0,44.9,40.7,44.0,42.1,39.0,95,90,62,30.20,29.95,10,1,18,0.64
2013-4-5,57.9,47.3,37.7,48.0,42.4,36.0,95,84,67,30.06,29.91,12,2,14,0.00
2013-4-6,73.4,57.4,41.1,47.0,41.2,38.0,96,61,30,30.21,30.06,6,0,18,0.01
2013-4-7,75.8,62.6,46.5,57.0,51.2,42.0,95,69,47,30.25,30.09,3,0,11,0.00
2013-4-8,79.8,66.0,52.9,59.0,55.5,51.0,95,72,46,30.19,30.07,5,0,8,0.00
2013-4-9,84.7,69.8,57.5,65.0,59.6,56.0,96,73,46,30.21,30.11,2,0,9,0.00
2013-4-10,84.5,71.7,59.9,64.0,61.1,58.0,95,72,46,30.15,29.98,7,1,11,0.00
2013-4-11,81.3,69.0,61.1,70.0,65.3,60.0,98,88,66,29.99,29.77,6,0,10,0.10
2013-4-12,80.8,70.3,59.1,71.0,61.5,45.0,97,77,36,29.88,29.71,8,1,17,0.12
2013-4-13,78.7,61.7,45.7,50.0,44.7,41.0,86,56,31,30.02,29.88,5,0,8,0.00
2013-4-14,69.7,60.4,49.8,60.0,53.0,44.0,97,78,61,30.09,29.84,6,0,20,0.24
2013-4-15,74.2,65.2,59.9,65.0,61.1,59.0,96,86,71,30.17,29.94,0,0,8,0.00
2013-4-16,82.1,69.7,60.4,65.0,61.7,59.0,97,78,51,30.26,30.16,4,0,6,0.00
2013-4-17,84.8,70.2,56.6,66.0,61.4,56.0,97,76,52,30.24,30.11,2,0,6,0.00
2013-4-18,82.1,71.2,61.1,68.0,63.2,58.0,97,77,55,30.13,29.98,2,0,8,0.00
2013-4-19,83.5,68.7,51.2,71.0,64.8,49.0,97,88,62,29.99,29.82,13,2,20,0.52
2013-4-20,66.5,54.3,44.1,49.0,43.3,38.0,94,70,39,30.25,29.96,7,1,13,0.01
2013-4-21,69.5,56.9,42.9,46.0,43.6,41.0,92,65,40,30.36,30.25,13,1,16,0.00
2013-4-22,68.1,58.0,49.2,45.0,39.3,36.0,74,52,35,30.32,30.17,8,2,15,0.00
2013-4-23,74.4,60.2,48.2,55.0,47.7,37.0,83,65,46,30.23,30.10,3,0,10,0.00
2013-4-24,79.1,65.2,54.1,61.0,57.2,53.0,96,77,52,30.17,30.05,8,0,13,0.00
2013-4-25,80.2,68.5,55.5,63.0,56.4,45.0,92,68,34,30.25,30.07,7,1,12,0.00
2013-4-26,76.2,63.0,50.9,59.0,50.5,39.0,86,65,47,30.39,30.23,9,1,13,0.00
2013-4-27,68.5,60.4,53.3,59.0,54.1,48.0,96,80,67,30.35,30.21,4,0,9,0.17
2013-4-28,73.4,62.2,56.4,66.0,59.3,50.0,98,90,76,30.21,30.00,3,0,11,1.67
2013-4-29,70.9,64.4,60.0,68.0,62.7,60.0,99,94,81,30.07,29.95,1,0,6,0.22
2013-4-30,77.8,64.5,57.3,67.0,61.4,57.0,98,90,64,30.12,29.96,8,0,8,0.00
2013-5-1,68.9,63.0,58.5,61.0,58.2,56.0,96,85,70,30.21,30.10,5,1,12,0.00
2013-5-2,68.8,64.4,61.0,62.0,59.9,57.0,94,85,77,30.20,30.12,7,1,14,0.00
2013-5-3,66.2,60.8,56.8,61.0,57.4,54.0,95,88,80,30.13,30.02,12,2,16,0.04
2013-5-4,60.4,57.6,53.1,58.0,53.5,48.0,96,86,71,30.01,29.85,9,2,17,0.31
2013-5-5,69.8,60.9,56.6,66.0,58.5,54.0,98,92,72,29.88,29.77,9,1,21,1.21
2013-5-6,68.6,58.2,50.0,54.0,50.8,48.0,95,78,53,29.95,29.82,8,0,10,0.00
2013-5-7,71.3,59.1,49.9,57.0,51.8,48.0,94,78,56,29.99,29.88,3,0,11,0.01
2013-5-8,79.5,64.8,48.9,60.0,54.7,48.0,96,72,49,30.05,29.94,6,0,13,0.00
2013-5-9,85.6,70.2,55.5,65.0,59.2,53.0,94,71,42,30.10,30.01,4,0,12,0.00
2013-5-10,86.1,72.5,59.0,66.0,61.8,57.0,94,72,45,30.09,29.96,6,0,10,0.00
2013-5-11,81.9,72.3,62.5,69.0,64.3,60.0,90,76,61,30.00,29.86,4,0,12,0.00
2013-5-12,79.3,69.7,58.9,65.0,54.9,39.0,94,63,34,30.05,29.86,9,1,13,0.00
2013-5-13,72.7,60.1,46.8,47.0,42.0,39.0,80,54,30,30.18,30.03,8,1,13,0.00
2013-5-14,76.2,63.6,48.3,49.0,42.5,36.0,67,48,32,30.28,30.14,5,0,10,0.00
2013-5-15,90.3,73.4,55.6,64.0,56.5,47.0,77,57,40,30.16,29.98,4,0,12,0.00
2013-5-16,83.5,73.0,62.7,67.0,62.6,58.0,87,71,55,30.08,29.98,4,0,9,0.00
2013-5-17,87.5,73.4,60.8,67.0,63.5,59.0,94,73,47,30.12,30.02,3,0,7,0.00
2013-5-18,78.7,71.4,65.4,69.0,65.7,61.0,93,82,70,30.13,30.04,2,0,6,0.00
2013-5-19,78.9,71.5,66.7,71.0,67.9,65.0,96,88,73,30.11,30.03,5,0,8,0.00
2013-5-20,84.3,74.8,68.3,72.0,69.3,67.0,97,84,64,30.11,30.01,7,0,7,0.00
2013-5-21,87.6,71.9,65.2,74.0,68.8,64.0,99,91,58,30.05,29.94,4,0,17,0.51
2013-5-22,83.6,72.1,63.0,73.0,67.3,63.0,99,86,61,30.02,29.89,1,0,7,0.00
2013-5-23,84.5,74.4,66.7,72.0,67.3,63.0,98,80,51,29.96,29.86,10,1,12,0.00
2013-5-24,82.1,71.7,60.2,63.0,52.4,36.0,87,54,25,30.17,29.90,9,2,23,0.00
2013-5-25,79.2,65.2,48.9,53.0,46.4,43.0,82,53,31,30.31,30.17,9,0,9,0.00
2013-5-26,84.7,69.0,52.8,59.0,53.5,49.0,88,61,34,30.26,30.15,6,0,13,0.00
2013-5-27,87.2,73.5,59.6,65.0,59.7,54.0,88,64,44,30.24,30.12,4,0,9,0.00
2013-5-28,84.9,74.0,62.2,68.0,63.6,59.0,95,72,52,30.23,30.13,4,0,9,0.00
2013-5-29,87.1,74.5,62.1,68.0,64.3,61.0,96,73,49,30.24,30.14,2,0,6,0.00
2013-5-30,88.5,75.2,62.8,71.0,66.4,61.0,97,76,50,30.26,30.12,3,0,7,0.00
2013-5-31,89.3,77.3,67.8,73.0,69.1,66.0,98,78,50,30.21,30.08,2,0,8,0.00
2013-6-1,87.2,76.6,65.5,72.0,68.4,65.0,98,78,54,30.14,30.01,3,0,8,0.00
2013-6-2,90.5,77.0,68.1,74.0,70.2,67.0,97,82,51,30.08,29.87,4,0,9,0.21
2013-6-3,87.1,76.2,70.6,76.0,72.2,69.0,99,88,61,29.94,29.85,4,0,10,0.02
2013-6-4,89.0,75.6,68.5,75.0,70.8,68.0,99,86,59,30.02,29.91,6,0,13,0.06
2013-6-5,83.1,72.8,68.5,76.0,71.4,68.0,99,95,78,30.03,29.94,3,0,8,1.79
2013-6-6,77.3,71.5,69.5,74.0,70.5,69.0,99,97,88,29.95,29.71,5,0,8,1.14
2013-6-7,84.9,72.6,68.0,76.0,70.6,68.0,99,93,71,29.88,29.56,10,1,14,1.90
2013-6-8,84.9,74.9,68.4,73.0,69.9,68.0,98,86,61,30.07,29.84,2,0,9,0.00
2013-6-9,82.5,72.6,69.7,76.0,71.2,68.0,99,95,79,30.13,30.03,7,0,18,1.85
2013-6-10,80.3,73.3,69.8,77.0,72.4,69.0,99,97,86,30.08,29.97,7,0,15,1.87
2013-6-11,89.1,77.7,69.2,79.0,73.7,69.0,99,88,66,30.04,29.93,7,0,10,0.00
2013-6-12,94.5,82.0,70.8,79.0,75.1,70.0,99,81,59,30.01,29.92,5,0,8,0.00
2013-6-13,95.0,84.5,73.8,79.0,75.0,73.0,97,75,53,29.93,29.70,8,1,15,0.00
2013-6-14,86.4,78.0,69.8,73.0,65.3,59.0,96,67,41,30.00,29.75,7,1,14,0.00
2013-6-15,86.9,75.3,63.8,67.0,62.7,59.0,85,66,43,30.12,30.00,2,0,6,0.00
2013-6-16,88.3,76.5,64.7,72.0,67.1,61.0,91,74,55,30.17,30.03,5,0,10,0.00
2013-6-17,88.9,75.2,68.7,77.0,69.9,65.0,98,84,62,30.07,29.95,3,0,12,1.01
2013-6-18,85.0,74.6,68.6,78.0,72.3,68.0,99,93,78,30.00,29.84,7,0,14,0.37
2013-6-19,81.9,74.9,69.3,76.0,72.2,66.0,98,91,77,30.07,29.89,5,0,13,0.01
2013-6-20,85.0,75.3,67.4,70.0,67.1,65.0,96,77,54,30.17,30.05,7,1,13,0.00
2013-6-21,85.2,74.6,64.2,66.0,64.1,62.0,95,72,51,30.22,30.13,8,0,12,0.00
2013-6-22,87.1,76.2,65.9,75.0,68.4,62.0,96,78,57,30.18,30.09,3,0,9,0.06
2013-6-23,84.1,75.3,68.8,77.0,72.3,68.0,99,91,70,30.19,30.11,4,0,6,0.24
2013-6-24,86.8,75.2,70.1,77.0,72.6,70.0,99,92,70,30.21,30.11,4,0,15,0.31
2013-6-25,89.3,75.4,68.1,77.0,71.6,68.0,99,89,63,30.17,30.04,5,0,7,0.12
2013-6-26,87.1,74.8,69.7,79.0,72.8,69.0,99,94,74,30.07,29.95,5,0,11,0.76
2013-6-27,89.5,79.6,71.7,79.0,75.0,71.0,99,86,68,29.98,29.77,7,0,13,0.00
2013-6-28,92.3,80.4,70.4,80.0,73.9,68.0,98,82,61,29.82,29.64,9,0,11,0.00
2013-6-29,83.7,76.8,71.7,76.0,72.4,68.0,93,86,76,29.74,29.67,2,0,8,0.00
2013-6-30,86.5,75.6,69.3,77.0,73.1,69.0,98,92,71,29.84,29.70,4,0,7,0.15
2013-7-1,80.0,73.3,67.6,75.0,71.6,67.0,99,94,83,29.97,29.78,4,0,6,0.49
2013-7-2,79.2,74.7,71.5,74.0,72.4,70.0,97,92,83,30.12,29.97,4,0,11,0.02
2013-7-3,82.1,74.2,71.3,77.0,72.8,70.0,98,95,84,30.18,30.10,0,0,8,1.17
2013-7-4,86.2,78.0,72.2,79.0,74.8,71.0,99,90,71,30.20,30.11,4,0,10,0.82
2013-7-5,84.0,76.7,71.2,77.0,74.6,71.0,99,93,78,30.21,30.15,5,0,8,0.11
2013-7-6,85.1,75.9,71.1,78.0,74.1,71.0,99,94,74,30.20,30.10,1,0,7,0.52
2013-7-7,85.7,77.1,72.9,79.0,75.0,73.0,99,93,76,30.18,30.07,2,0,6,0.08
2013-7-8,87.4,76.8,72.4,79.0,74.3,72.0,98,92,73,30.19,30.11,1,0,6,0.04
2013-7-9,89.2,79.1,72.2,79.0,75.4,72.0,99,89,69,30.18,30.06,1,0,7,0.02
2013-7-10,83.5,76.2,71.4,77.0,73.9,71.0,99,93,79,30.11,29.97,6,0,10,0.85
2013-7-11,88.2,77.2,72.6,78.0,73.8,71.0,98,90,69,29.99,29.86,4,0,11,0.14
2013-7-12,81.4,74.4,70.3,78.0,72.7,69.0,99,95,83,29.95,29.86,1,0,6,0.70
2013-7-13,78.3,73.4,69.8,75.0,71.5,67.0,97,93,86,30.05,29.95,5,0,9,0.17
2013-7-14,81.3,74.4,70.9,77.0,73.1,70.0,99,95,84,30.22,30.05,3,0,13,0.34
2013-7-15,87.0,77.0,72.0,77.0,74.2,72.0,99,91,71,30.26,30.20,5,0,9,0.01
2013-7-16,89.9,79.2,71.5,77.0,72.8,71.0,99,82,56,30.29,30.20,1,0,7,0.00
2013-7-17,93.2,77.3,69.7,79.0,73.0,68.0,98,88,62,30.24,30.10,5,0,13,0.46
2013-7-18,88.6,78.6,68.8,78.0,73.8,69.0,99,86,67,30.19,30.04,3,0,5,0.01
2013-7-19,89.7,78.8,71.1,76.0,73.3,70.0,98,84,57,30.12,29.99,6,0,11,0.00
2013-7-20,84.5,77.7,72.9,76.0,73.5,71.0,96,87,73,30.07,29.94,2,0,7,0.00
2013-7-21,86.8,78.1,73.9,78.0,74.5,73.0,96,89,73,30.04,29.93,2,0,6,0.00
2013-7-22,86.0,77.8,71.1,76.0,73.6,71.0,98,87,68,30.02,29.88,5,0,9,0.00
2013-7-23,90.6,80.0,73.4,77.0,74.0,72.0,95,83,60,29.92,29.80,11,1,11,0.00
2013-7-24,91.8,77.6,70.6,79.0,73.3,69.0,98,87,61,29.83,29.74,5,0,11,0.00
2013-7-25,89.9,78.8,69.2,76.0,72.4,68.0,98,82,61,29.99,29.78,4,0,8,0.00
2013-7-26,87.5,77.4,70.2,77.0,72.8,68.0,97,86,64,30.07,29.98,4,0,14,0.44
2013-7-27,85.8,77.1,72.9,79.0,74.4,71.0,98,91,74,30.03,29.89,5,0,6,0.07
2013-7-28,89.7,78.9,69.9,76.0,72.5,69.0,99,82,59,30.01,29.92,2,0,9,0.00
2013-7-29,88.0,78.4,71.8,78.0,74.6,71.0,98,88,68,30.14,30.00,6,0,11,0.32
2013-7-30,88.3,78.5,69.8,78.0,74.2,69.0,99,87,64,30.17,30.09,0,0,6,0.00
2013-7-31,81.7,75.1,72.4,77.0,73.7,72.0,98,95,84,30.13,30.00,3,0,9,0.74
2013-8-1,84.5,76.3,71.5,78.0,73.8,71.0,99,92,79,30.01,29.89,5,0,6,0.03
2013-8-2,86.1,77.5,72.6,78.0,74.7,72.0,98,91,75,30.03,29.91,0,0,5,0.00
2013-8-3,90.6,80.4,72.1,80.0,74.5,71.0,98,83,61,30.03,29.94,4,0,9,0.00
2013-8-4,90.8,80.2,72.8,79.0,74.6,71.0,96,84,59,30.00,29.91,2,0,9,0.01
2013-8-5,85.3,77.1,73.7,75.0,71.9,68.0,96,84,67,30.04,29.96,3,0,6,0.00
2013-8-6,83.5,76.3,69.7,78.0,72.1,67.0,95,87,79,30.04,29.95,2,0,8,0.00
2013-8-7,86.6,78.0,71.3,75.0,72.3,70.0,97,83,63,30.06,29.98,2,0,6,0.00
2013-8-8,89.6,79.8,70.2,76.0,72.8,69.0,98,80,60,30.05,29.98,1,0,6,0.00
2013-8-9,89.6,80.7,74.6,81.0,76.8,74.0,98,88,69,30.10,30.00,1,0,7,0.03
2013-8-10,91.9,82.2,73.5,79.0,75.3,73.0,98,81,58,30.13,30.04,4,0,7,0.00
2013-8-11,92.6,82.9,73.1,80.0,74.9,72.0,97,78,57,30.14,30.04,4,0,10,0.00
2013-8-12,94.2,81.7,73.1,80.0,75.8,72.0,97,83,58,30.08,29.95,6,0,11,0.00
2013-8-13,94.1,82.3,73.5,78.0,75.2,72.0,96,80,57,29.98,29.83,6,0,11,0.00
2013-8-14,80.9,76.1,70.8,75.0,71.6,68.0,97,86,69,30.02,29.85,5,0,9,0.01
2013-8-15,71.2,66.0,62.5,69.0,64.6,61.0,97,95,90,30.09,29.98,7,0,14,1.03
2013-8-16,66.3,64.7,63.5,65.0,63.7,63.0,98,96,92,30.11,30.03,6,0,12,2.11
2013-8-17,69.0,66.2,63.8,68.0,65.7,63.0,99,98,97,30.17,30.07,4,0,9,0.25
2013-8-18,85.8,73.4,67.7,77.0,71.1,67.0,99,93,73,30.19,30.09,3,0,17,0.38
2013-8-19,80.8,73.8,69.5,77.0,72.7,69.0,99,96,87,30.16,30.05,2,0,15,1.47
2013-8-20,82.7,75.4,72.0,78.0,74.0,71.0,98,95,82,30.17,30.07,2,0,6,0.25
2013-8-21,87.5,77.0,70.8,79.0,73.7,70.0,99,90,66,30.23,30.11,2,0,10,0.09
2013-8-22,90.3,79.0,69.3,78.0,73.3,69.0,99,84,57,30.16,30.01,3,0,7,0.00
2013-8-23,89.7,78.3,70.0,78.0,73.7,70.0,99,87,65,30.05,29.95,4,0,11,0.01
2013-8-24,79.1,73.1,68.9,72.0,69.7,68.0,97,89,74,30.23,30.02,6,0,11,0.00
2013-8-25,82.5,72.5,64.6,68.0,63.2,60.0,95,74,49,30.35,30.24,6,0,13,0.00
2013-8-26,82.3,70.6,61.5,64.0,60.6,57.0,91,72,48,30.30,30.14,4,0,10,0.00
2013-8-27,86.5,72.7,59.0,72.0,64.7,56.0,94,77,56,30.16,30.01,4,0,7,0.00
2013-8-28,87.9,76.8,65.7,74.0,69.7,65.0,97,80,58,30.03,29.94,2,0,8,0.00
2013-8-29,93.0,80.3,68.9,79.0,73.8,68.0,96,81,60,29.97,29.87,6,0,7,0.00
2013-8-30,85.5,78.5,73.8,76.0,73.6,72.0,95,85,70,30.02,29.92,3,0,9,0.00
2013-8-31,87.5,78.9,71.6,79.0,74.9,71.0,99,88,71,29.98,29.87,1,0,8,0.01
2013-9-1,91.2,79.4,71.6,79.0,74.8,71.0,99,87,64,29.93,29.82,6,0,9,0.74
2013-9-2,88.8,78.1,69.9,79.0,74.3,70.0,99,88,69,29.93,29.82,4,0,7,0.00
2013-9-3,89.2,77.5,71.2,79.0,74.3,69.0,98,90,68,29.96,29.85,8,0,11,0.33
2013-9-4,90.6,78.7,68.9,78.0,73.0,68.0,99,84,58,30.07,29.94,2,0,6,0.00
2013-9-5,90.6,79.2,70.5,76.0,71.8,70.0,99,80,53,30.10,30.02,1,0,6,0.00
2013-9-6,87.3,76.8,68.9,71.0,68.3,66.0,97,77,52,30.12,30.03,4,0,9,0.00
2013-9-7,87.1,75.3,66.1,71.0,66.6,63.0,91,75,54,30.10,29.98,5,0,9,0.00
2013-9-8,89.0,75.8,65.0,75.0,68.5,63.0,95,79,53,30.01,29.91,2,0,6,0.00
2013-9-9,89.3,78.0,67.4,73.0,69.4,66.0,96,77,51,30.12,29.98,3,0,8,0.00
2013-9-10,89.1,77.5,68.2,74.0,69.9,67.0,98,79,53,30.23,30.12,5,0,10,0.00
2013-9-11,88.7,76.1,64.8,73.0,67.6,63.0,98,78,44,30.21,30.08,5,0,10,0.00
2013-9-12,88.9,76.9,65.9,74.0,69.8,65.0,98,80,56,30.09,29.87,5,0,9,0.00
2013-9-13,89.4,78.3,70.0,73.0,68.8,65.0,96,75,50,29.88,29.75,4,0,10,0.00
2013-9-14,82.7,72.7,64.3,66.0,60.8,53.0,80,67,56,30.06,29.84,6,0,11,0.00
2013-9-15,86.6,75.5,65.4,75.0,68.6,62.0,89,79,62,30.15,30.06,1,0,11,0.00
2013-9-16,89.0,78.6,72.1,78.0,73.5,70.0,99,85,53,30.12,30.01,6,0,10,0.16
2013-9-17,78.5,72.3,65.0,72.0,64.8,60.0,98,78,60,30.23,30.07,7,1,14,0.00
2013-9-18,79.0,68.7,60.5,62.0,59.1,55.0,86,72,55,30.25,30.13,5,0,10,0.00
2013-9-19,82.7,70.1,57.7,65.0,60.7,56.0,94,74,53,30.18,30.07,5,0,7,0.00
2013-9-20,85.6,73.4,61.9,71.0,65.6,60.0,95,78,56,30.08,29.92,4,0,6,0.00
2013-9-21,80.7,73.1,65.9,71.0,68.8,65.0,98,87,71,29.96,29.70,4,0,7,0.30
2013-9-22,81.3,71.0,63.4,70.0,63.2,57.0,98,78,54,29.88,29.72,11,1,11,0.31
2013-9-23,79.8,69.3,60.0,65.0,60.3,57.0,95,74,55,30.04,29.88,6,0,8,0.00
2013-9-24,78.4,69.8,61.8,64.0,61.3,59.0,90,75,59,30.04,29.91,3,0,11,0.00
2013-9-25,74.5,66.9,62.9,64.0,62.8,62.0,97,87,66,29.90,29.82,5,0,10,0.53
2013-9-26,77.2,66.9,61.8,65.0,62.1,60.0,97,86,60,29.99,29.85,4,0,10,0.01
2013-9-27,78.2,66.6,58.0,60.0,57.5,55.0,92,74,52,30.13,29.98,6,0,13,0.01
2013-9-28,75.1,65.4,56.1,59.0,55.9,53.0,91,73,54,30.21,30.11,12,1,15,0.00
2013-9-29,75.0,64.8,56.8,61.0,56.6,54.0,91,76,57,30.14,30.01,5,0,8,0.00
2013-9-30,74.1,62.8,52.8,59.0,55.2,51.0,96,78,54,30.09,30.00,4,0,8,0.00
2013-10-1,80.6,66.8,55.5,64.0,58.0,53.0,97,76,49,30.16,30.04,3,0,8,0.00
2013-10-2,84.1,69.3,56.9,68.0,61.3,55.0,96,77,51,30.16,30.06,3,0,6,0.00
2013-10-3,84.9,71.5,60.0,66.0,61.6,58.0,96,73,47,30.14,30.05,2,0,5,0.00
2013-10-4,85.6,71.8,62.7,72.0,65.1,61.0,98,81,51,30.15,30.06,4,0,7,0.00
2013-10-5,86.9,73.5,61.8,69.0,64.4,60.0,97,76,51,30.12,30.01,6,0,7,0.00
2013-10-6,85.5,73.2,62.9,71.0,66.6,61.0,97,81,56,30.05,29.89,2,0,7,0.01
2013-10-7,77.7,74.2,68.9,76.0,72.5,68.0,97,94,88,29.93,29.80,6,0,11,2.49
2013-10-8,68.8,61.9,57.7,68.0,57.3,53.0,98,85,75,30.14,29.89,11,1,18,0.08
2013-10-9,74.2,63.4,56.7,57.0,54.0,51.0,84,72,53,30.18,30.07,8,1,13,0.00
2013-10-10,78.3,63.1,51.0,60.0,54.2,49.0,93,74,49,30.11,29.98,7,0,12,0.00
2013-10-11,82.1,67.5,56.3,64.0,58.9,54.0,93,76,53,30.02,29.92,6,0,8,0.00
2013-10-12,80.7,68.6,56.6,67.0,61.3,55.0,98,79,59,30.06,29.95,1,0,7,0.00
2013-10-13,74.9,69.5,65.3,66.0,64.0,62.0,92,83,73,30.16,30.06,5,0,10,0.00
2013-10-14,69.5,66.2,64.3,64.0,63.0,62.0,95,89,82,30.18,30.10,5,0,10,0.00
2013-10-15,74.4,65.9,60.2,62.0,58.7,55.0,92,78,56,30.15,30.02,5,0,15,0.00
2013-10-16,78.2,66.3,55.4,66.0,60.0,53.0,97,81,62,30.06,29.95,3,0,6,0.00
2013-10-17,81.3,71.4,63.7,69.0,65.6,62.0,96,82,65,29.98,29.87,4,0,7,0.00
2013-10-18,78.2,71.5,67.3,69.0,67.6,66.0,96,88,71,29.98,29.89,0,0,5,0.00
2013-10-19,75.7,68.2,61.6,68.0,61.3,54.0,96,80,55,29.96,29.88,6,0,10,0.02
2013-10-20,72.0,61.8,52.6,57.0,53.6,51.0,93,76,54,30.06,29.94,2,0,7,0.00
2013-10-21,70.9,60.8,52.8,60.0,54.8,50.0,91,81,63,30.13,30.01,3,0,7,0.00
2013-10-22,68.5,62.7,58.8,63.0,59.3,56.0,96,89,76,30.04,29.85,0,0,4,0.01
2013-10-23,68.8,60.3,49.0,61.0,49.6,38.0,96,72,32,30.07,29.79,14,2,21,0.00
2013-10-24,65.6,50.4,35.9,46.0,38.6,32.0,89,66,41,30.22,30.07,2,0,7,0.00
2013-10-25,57.9,49.4,41.6,43.0,38.8,33.0,87,68,46,30.36,30.17,5,0,12,0.00
2013-10-26,61.6,47.8,36.1,40.0,34.7,30.0,78,62,40,30.35,30.16,6,0,11,0.00
2013-10-27,71.8,54.9,40.7,56.0,46.4,37.0,89,74,57,30.16,30.08,6,0,10,0.00
2013-10-28,71.6,61.0,54.3,60.0,55.8,51.0,95,84,61,30.27,30.13,0,0,3,0.01
2013-10-29,73.4,60.8,51.7,60.0,54.5,50.0,97,81,57,30.35,30.25,5,0,10,0.00
2013-10-30,77.1,63.2,52.7,61.0,55.7,50.0,96,78,55,30.33,30.18,2,0,8,0.00
2013-10-31,78.3,66.9,55.0,67.0,60.9,53.0,96,82,63,30.21,29.94,7,0,12,0.00
2013-11-1,74.6,66.9,63.4,70.0,64.7,62.0,97,92,83,29.94,29.75,9,0,12,1.41
2013-11-2,70.2,60.1,50.5,63.0,53.1,45.0,97,80,49,30.01,29.77,6,0,14,0.01
2013-11-3,63.8,52.0,41.6,44.0,41.8,39.0,92,70,45,30.31,30.00,5,0,9,0.00
2013-11-4,61.3,51.0,43.5,40.0,38.0,36.0,81,63,40,30.48,30.31,8,0,18,0.00
2013-11-5,65.0,52.9,41.3,53.0,45.0,34.0,88,75,61,30.48,30.36,7,1,13,0.00
2013-11-6,73.0,60.3,51.4,62.0,54.8,49.0,92,82,66,30.36,30.12,3,0,14,0.00
2013-11-7,72.7,61.0,50.7,65.0,54.6,38.0,97,81,51,30.13,29.96,9,0,11,0.00
2013-11-8,59.0,48.4,41.3,39.0,35.8,34.0,79,63,41,30.32,30.13,9,1,14,0.00
2013-11-9,61.9,49.6,38.4,42.0,36.0,31.0,79,62,36,30.38,30.25,2,0,7,0.00
2013-11-10,66.9,54.3,46.8,48.0,42.7,40.0,85,67,39,30.27,30.15,3,0,7,0.00
2013-11-11,63.0,52.9,42.3,42.0,37.9,33.0,83,58,42,30.32,30.18,8,0,13,0.00
2013-11-12,69.8,50.6,37.4,46.0,39.2,28.0,93,68,41,30.42,30.04,11,2,28,0.00
2013-11-13,47.6,36.8,27.8,28.0,21.0,18.0,74,55,33,30.57,30.42,12,1,18,0.00
2013-11-14,58.5,40.6,24.6,35.0,25.5,20.0,88,60,27,30.53,30.35,1,0,7,0.00
2013-11-15,63.2,53.6,41.9,55.0,46.8,35.0,92,78,71,30.35,30.17,0,0,5,0.00
2013-11-16,70.8,61.4,52.9,61.0,57.0,51.0,96,86,69,30.25,30.14,3,0,7,0.00
2013-11-17,71.2,63.7,55.6,67.0,61.5,54.0,97,92,82,30.18,29.97,3,0,6,0.00
2013-11-18,81.6,70.4,54.9,70.0,58.4,36.0,98,70,40,29.97,29.84,7,1,16,0.00
2013-11-19,59.4,51.9,46.2,36.0,31.8,29.0,64,48,33,30.21,29.97,10,1,14,0.00
2013-11-20,55.3,49.1,40.2,42.0,35.8,30.0,73,61,51,30.37,30.20,8,1,14,0.00
2013-11-21,58.9,53.2,48.2,51.0,46.1,41.0,87,77,68,30.42,30.34,7,0,12,0.00
2013-11-22,72.5,60.7,51.8,63.0,56.3,49.0,93,86,71,30.35,30.16,4,0,8,0.00
2013-11-23,63.0,59.9,50.3,62.0,55.0,28.0,97,85,41,30.17,30.04,8,0,14,0.01
2013-11-24,49.9,40.1,30.7,29.0,20.4,12.0,60,46,34,30.53,30.17,8,1,16,0.00
2013-11-25,48.7,38.0,26.5,30.0,18.5,10.0,59,46,36,30.55,30.28,7,0,13,0.00
2013-11-26,67.2,53.2,42.4,67.0,49.5,30.0,98,87,58,30.27,29.58,7,0,13,0.75
2013-11-27,52.2,42.3,29.0,49.0,39.9,26.0,100,91,76,30.25,29.56,11,1,19,0.26
2013-11-28,45.4,33.2,24.2,32.0,26.4,22.0,92,77,53,30.52,30.26,3,0,8,0.00
2013-11-29,54.2,39.4,27.0,36.0,29.8,25.0,95,71,42,30.56,30.47,4,0,8,0.00
2013-11-30,50.8,42.6,32.7,37.0,31.9,26.0,77,67,53,30.58,30.35,6,0,13,0.00
2013-12-1,57.1,48.1,42.0,47.0,40.9,36.0,90,76,67,30.35,30.03,0,0,5,0.00
2013-12-2,61.3,51.0,44.9,47.0,44.4,43.0,94,80,56,30.02,29.84,7,0,12,0.00
2013-12-3,62.0,54.7,48.7,57.0,51.4,45.0,96,88,81,29.98,29.88,4,0,7,0.92
2013-12-4,68.3,61.3,56.6,65.0,59.9,56.0,98,95,86,30.09,29.95,0,0,7,0.24
2013-12-5,66.5,64.3,61.6,66.0,63.6,61.0,98,97,93,30.14,30.06,6,0,7,0.09
2013-12-6,76.9,68.6,61.8,69.0,64.9,61.0,98,88,74,30.14,30.04,6,1,11,0.00
2013-12-7,67.8,60.4,45.0,66.0,59.1,44.0,97,95,89,30.35,30.06,5,0,14,0.40
2013-12-8,44.9,42.4,39.9,44.0,41.5,39.0,97,96,96,30.38,30.27,5,0,11,0.26
2013-12-9,54.5,47.3,39.6,54.0,46.6,39.0,98,97,96,30.26,30.04,0,0,7,0.55
2013-12-10,65.6,55.0,39.7,65.0,51.6,30.0,99,88,67,30.34,29.96,12,2,19,0.07
2013-12-11,52.8,41.2,30.3,38.0,32.4,27.0,90,72,53,30.46,30.33,6,0,7,0.00
2013-12-12,50.6,39.9,31.1,34.0,29.6,27.0,91,69,41,30.43,30.31,5,0,10,0.00
2013-12-13,55.6,41.9,28.8,40.0,30.0,25.0,88,65,37,30.41,30.24,3,0,6,0.00
2013-12-14,63.0,53.6,46.7,62.0,50.3,39.0,98,88,75,30.23,29.83,6,1,11,1.33
2013-12-15,52.5,48.0,37.1,52.0,43.5,32.0,98,85,68,30.16,29.80,7,1,18,0.08
2013-12-16,57.1,41.9,28.9,39.0,33.0,27.0,95,73,47,30.25,30.16,3,0,8,0.00
2013-12-17,61.8,48.9,38.6,39.0,35.4,32.0,79,61,42,30.25,30.09,6,1,12,0.00
2013-12-18,51.9,44.0,34.4,36.0,29.5,26.0,74,58,39,30.33,30.11,6,0,11,0.00
2013-12-19,60.9,45.4,30.6,46.0,34.9,27.0,87,69,36,30.39,30.25,3,0,6,0.00
2013-12-20,67.9,55.4,44.1,57.0,50.5,42.0,97,84,64,30.27,30.16,5,0,9,0.00
2013-12-21,78.1,65.6,54.4,66.0,59.6,52.0,96,82,62,30.17,30.01,7,0,17,0.00
2013-12-22,76.1,70.4,65.0,68.0,67.0,64.0,97,89,77,30.09,30.01,11,2,16,0.77
2013-12-23,68.0,60.9,51.2,68.0,59.9,49.0,98,96,91,30.16,30.02,6,1,10,0.82
2013-12-24,50.7,43.7,35.9,48.0,34.6,25.0,94,73,44,30.40,30.15,8,2,17,0.00
2013-12-25,44.8,36.8,27.5,26.0,22.6,18.0,69,57,47,30.53,30.38,7,0,12,0.00
2013-12-26,51.7,42.4,36.7,40.0,34.1,25.0,91,73,55,30.38,30.27,3,0,6,0.01
2013-12-27,52.1,42.1,36.1,35.0,31.2,25.0,91,67,47,30.47,30.34,5,0,12,0.00
2013-12-28,54.5,43.4,33.9,43.0,34.1,28.0,94,72,44,30.42,30.09,3,0,9,0.22
2013-12-29,62.0,51.4,44.1,62.0,49.3,43.0,99,92,80,30.08,29.80,9,1,14,1.38
2013-12-30,55.7,47.3,38.9,46.0,42.9,37.0,96,85,69,30.19,29.99,6,0,8,0.00
2013-12-31,53.5,46.9,38.8,45.0,39.0,33.0,88,75,49,30.39,30.17,4,0,11,0.00
2014-1-1,51.1,44.3,36.3,43.0,37.9,32.0,89,78,68,30.39,30.16,1,0,3,0.00
2014-1-2,51.4,46.1,34.7,51.0,43.9,28.0,97,92,76,30.16,29.73,19,1,22,0.40